sat.trackr.live / text

‹ back to catalog

STARLINK-1262

NORAD 45366 · 2020-019G

PAYLOAD ACTIVE UNKNOWN

§ Identity

Operator
Country
US
Launch date
2020-03-18
Launch site
AFETR
Launch vehicle
Mass (kg)
RCS (m²)

Purposes: comms

External: N2YO · Heavens-Above · Gunter

§ Orbital elements

Epoch: 2026-05-25T01:54:52.527168Z

Period
93.95 min
Inclination
53.1537°
Eccentricity
0.0003841
Mean motion
15.32669649 rev/d
Perigee alt
465.2 km
Apogee alt
470.5 km
Semi-major
6,846.0 km
B*
9.9143e-4
RAAN
170.1475°
Arg perigee
26.1644°
Mean anomaly
333.9551°
Rev number
34,145

§ Raw data

STARLINK-12621 45366U 20019G   26145.07977462  .00031483  00000+0  99143-3 0  99932 45366  53.1537 170.1475 0003841  26.1644 333.9551 15.32669649341451

JSON: /api/v1/satellites/45366 · /tle

For live sub-satellite position, see the globe view (requires WebGL).

§ Visibility from observer

Set your observer location to see the next 7 days of passes ≥ 10°. The values pass through the URL so the page stays shareable.

No JS? Fill the form by hand. The geolocation button needs JavaScript.